Weather History for KNSE - August, 2013

Change the Weather History Date:

Thursday, August 22, 2013

  Actual Average Record
Temperature  
Mean Temperature 80 °F -  
Max Temperature 91 °F 87 °F 99 °F (2007)
Min Temperature 71 °F 70 °F 66 °F (1997)
Cooling Degree Days 16    
Growing Degree Days 30 (Base 50)    
Moisture  
Dew Point 71 °F    
Average Humidity 83    
Maximum Humidity 100    
Minimum Humidity 55    
Precipitation  
Precipitation 0.97 in - - ()
Sea Level Pressure  
Sea Level Pressure 30.02 in    
Wind  
Wind Speed 4 mph (ENE)    
Max Wind Speed 13 mph    
Max Gust Speed 18 mph    
Visibility 9 miles    
Events Rain , Thunderstorm    
Averages and records for this station are not official NWS values.
T = Trace of Precipitation, MM = Missing Value Source: NWS Daily Summary

Daily Weather History Graph

Daily Weather History Graph

Search for Another Location

Airport or City:

Trip Planner

Search our weather history database for the weather conditions in past years. The results will help you decide how hot, cold, wet, or windy it might be!

Date:

Astronomy

Aug. 22, 2013 Rise Set
Actual Time 6:18 AM CDT 7:22 PM CDT
Civil Twilight 5:53 AM CDT 7:47 PM CDT
Nautical Twilight 5:24 AM CDT 8:16 PM CDT
Astronomical Twilight 4:53 AM CDT 8:47 PM CDT
Moon 8:19 PM CDT (8/22) 7:55 AM CDT (8/22)
Length of Visible Light 13h 53m
Length of Day
13h 03m
Waning Gibbous, 96% of the Moon is Illuminated
Aug 22
Waning Gibbous
Aug 28
Last Quarter
Sep 5
New
Sep 12
First Quarter
Sep 19
Full

Hourly Weather History & Observations

Time (CDT) Temp. Heat Index Dew Point Humidity Pressure Visibility Wind Dir Wind Speed Gust Speed Precip Events Conditions
12:56 AM 71.1 °F - 68.0 °F 90% 30.06 in 10.0 mi NNE 3.5 mph - N/A   Scattered Clouds
1:56 AM 71.1 °F - 68.0 °F 90% 30.04 in 10.0 mi Calm Calm - N/A   Clear
2:56 AM 71.1 °F - 66.9 °F 87% 30.04 in 10.0 mi Calm Calm - N/A   Clear
3:56 AM 71.1 °F - 66.9 °F 87% 30.05 in 10.0 mi NNE 3.5 mph - N/A   Clear
4:56 AM 71.1 °F - 66.9 °F 87% 30.05 in 10.0 mi Calm Calm - N/A   Clear
5:56 AM 71.1 °F - 66.9 °F 87% 30.05 in 10.0 mi NE 3.5 mph - N/A   Scattered Clouds
6:56 AM 71.1 °F - 68.0 °F 90% 30.05 in 10.0 mi NE 3.5 mph - N/A   Scattered Clouds
7:56 AM 75.0 °F - 70.0 °F 84% 30.07 in 10.0 mi ENE 5.8 mph - N/A   Scattered Clouds
8:56 AM 79.0 °F - 72.0 °F 79% 30.08 in 10.0 mi ENE 8.1 mph - N/A   Scattered Clouds
9:56 AM 82.9 °F 88.8 °F 73.0 °F 72% 30.08 in 10.0 mi NE 5.8 mph - N/A   Scattered Clouds
10:56 AM 84.0 °F 89.6 °F 72.0 °F 67% 30.08 in 10.0 mi Variable 4.6 mph - N/A   Mostly Cloudy
11:56 AM 86.0 °F 92.2 °F 72.0 °F 63% 30.06 in 10.0 mi ENE 9.2 mph - N/A   Mostly Cloudy
12:56 PM 88.0 °F 93.8 °F 71.1 °F 57% 30.01 in 10.0 mi NE 8.1 mph - N/A   Mostly Cloudy
1:56 PM 88.0 °F 93.8 °F 71.1 °F 57% 30.00 in 10.0 mi East 5.8 mph - N/A   Mostly Cloudy
2:56 PM 90.0 °F 96.9 °F 72.0 °F 55% 29.98 in 10.0 mi ENE 3.5 mph - N/A   Mostly Cloudy
3:56 PM 88.0 °F 93.8 °F 71.1 °F 57% 29.96 in 10.0 mi East 10.4 mph - N/A   Mostly Cloudy
4:56 PM 82.9 °F 89.4 °F 73.9 °F 74% 29.95 in 10.0 mi SSE 12.7 mph - N/A   Mostly Cloudy
5:13 PM 80.6 °F 86.2 °F 75.2 °F 84% 30.00 in 2.0 mi ESE 9.2 mph - 0.12 in Rain Rain
5:23 PM 78.8 °F - 75.2 °F 89% 30.01 in 0.8 mi East 5.8 mph - 0.40 in Rain Heavy Rain
5:37 PM 78.8 °F - 75.2 °F 89% 30.02 in 3.0 mi ENE 8.1 mph - 0.61 in Rain Rain
5:44 PM 77.0 °F - 73.4 °F 89% 29.99 in 0.2 mi South 8.1 mph 18.4 mph 0.86 in Rain Heavy Rain
5:52 PM 75.2 °F - 71.6 °F 89% 30.00 in 5.0 mi East 8.1 mph 17.3 mph 0.95 in Rain , Thunderstorm Thunderstorms and Rain
5:56 PM 75.0 °F - 72.0 °F 90% 29.96 in 5.0 mi East 5.8 mph - 0.97 in Rain , Thunderstorm Thunderstorms and Rain
6:19 PM 75.2 °F - 73.4 °F 94% 30.00 in 10.0 mi East 3.5 mph - N/A Rain Light Rain
6:36 PM 75.2 °F - 73.4 °F 94% 30.00 in 10.0 mi Calm Calm - N/A   Mostly Cloudy
6:56 PM 75.0 °F - 75.0 °F 100% 29.96 in 10.0 mi Calm Calm - N/A   Mostly Cloudy
7:56 PM 75.9 °F - 75.0 °F 97% 29.99 in 10.0 mi ENE 3.5 mph - N/A   Mostly Cloudy
8:56 PM 73.9 °F - 71.1 °F 91% 30.00 in 10.0 mi Calm Calm - N/A   Mostly Cloudy
9:56 PM 73.9 °F - 71.1 °F 91% 30.00 in 10.0 mi East 3.5 mph - N/A   Scattered Clouds
10:56 PM 73.9 °F - 71.1 °F 91% 30.00 in 10.0 mi East 3.5 mph - N/A   Scattered Clouds
11:52 PM 73.4 °F - 71.6 °F 94% 30.03 in 10.0 mi Calm Calm - N/A   Scattered Clouds
11:56 PM 73.0 °F - 72.0 °F 96% 29.99 in 10.0 mi Calm Calm - N/A   Scattered Clouds